TimeCDT,TemperatureF,Dew PointF,Humidity,Sea Level PressureIn,VisibilityMPH,Wind Direction,Wind SpeedMPH,Gust SpeedMPH,PrecipitationIn,Events,Conditions,WindDirDegrees,DateUTC
12:54 AM,69.1,59.0,70,30.01,10.0,North,8.1,-,N/A,,Overcast,10,2013-08-03 05:54:00
1:54 AM,69.1,59.0,70,30.03,10.0,NNE,6.9,-,N/A,,Overcast,20,2013-08-03 06:54:00
2:54 AM,69.1,57.9,68,30.02,10.0,NE,10.4,-,N/A,,Mostly Cloudy,50,2013-08-03 07:54:00
3:54 AM,68.0,57.9,70,30.02,10.0,NE,11.5,-,N/A,,Mostly Cloudy,50,2013-08-03 08:54:00
4:54 AM,66.9,57.0,70,30.03,10.0,NE,9.2,-,N/A,,Mostly Cloudy,40,2013-08-03 09:54:00
5:54 AM,64.9,55.9,73,30.04,10.0,NE,8.1,-,N/A,,Partly Cloudy,50,2013-08-03 10:54:00
6:54 AM,64.9,55.9,73,30.06,10.0,NNE,6.9,-,N/A,,Partly Cloudy,30,2013-08-03 11:54:00
7:54 AM,68.0,55.0,63,30.08,10.0,NE,6.9,-,N/A,,Partly Cloudy,50,2013-08-03 12:54:00
8:54 AM,71.1,55.0,57,30.11,10.0,East,8.1,-,N/A,,Scattered Clouds,100,2013-08-03 13:54:00
9:54 AM,73.9,55.0,52,30.11,10.0,East,5.8,-,N/A,,Scattered Clouds,80,2013-08-03 14:54:00
10:54 AM,77.0,53.1,43,30.13,10.0,NNE,9.2,-,N/A,,Mostly Cloudy,30,2013-08-03 15:54:00
11:54 AM,77.0,54.0,45,30.13,10.0,NNE,9.2,-,N/A,,Mostly Cloudy,30,2013-08-03 16:54:00
12:54 PM,80.1,52.0,38,30.13,10.0,North,5.8,-,N/A,,Mostly Cloudy,350,2013-08-03 17:54:00
1:54 PM,80.1,52.0,38,30.12,10.0,Calm,Calm,-,N/A,,Scattered Clouds,0,2013-08-03 18:54:00
2:54 PM,80.1,51.1,36,30.12,10.0,North,6.9,-,N/A,,Scattered Clouds,10,2013-08-03 19:54:00
3:54 PM,80.1,53.1,39,30.11,10.0,NNW,9.2,-,N/A,,Mostly Cloudy,340,2013-08-03 20:54:00
4:54 PM,80.1,51.1,36,30.12,10.0,North,10.4,-,N/A,,Mostly Cloudy,350,2013-08-03 21:54:00
5:54 PM,80.1,52.0,38,30.10,10.0,North,8.1,-,N/A,,Scattered Clouds,10,2013-08-03 22:54:00
6:54 PM,79.0,52.0,39,30.10,10.0,NE,10.4,-,N/A,,Scattered Clouds,50,2013-08-03 23:54:00
7:54 PM,75.9,53.1,45,30.11,10.0,ENE,8.1,-,N/A,,Partly Cloudy,60,2013-08-04 00:54:00
8:54 PM,73.0,54.0,51,30.12,10.0,NE,5.8,-,N/A,,Partly Cloudy,50,2013-08-04 01:54:00
9:54 PM,72.0,54.0,53,30.15,10.0,ENE,3.5,-,N/A,,Clear,60,2013-08-04 02:54:00
10:54 PM,71.1,55.0,57,30.16,10.0,NE,3.5,-,N/A,,Clear,50,2013-08-04 03:54:00
11:54 PM,70.0,55.0,59,30.17,10.0,NE,3.5,-,N/A,,Partly Cloudy,50,2013-08-04 04:54:00